Regional Weather Roundup
Issued by NWS

Home | Current Version | Previous Version | Text Only | Print | Product List | Glossary Off
Versions: 1 2 3 4 5 6 7 8 9 10 11 12 13 14 15 16 17 18 19 20 21 22 23 24 25 26 27 28 29 30 31 32 33 34 35 36 37 38 39 40 41 42 43 44 45 46 47 48 49 50

000
ASUS43 KOAX 022002
RWRNE

WEATHER ROUNDUP FOR NEBRASKA
NATIONAL WEATHER SERVICE OMAHA NE
200 PM CST MON MAR 02 2015

NOTES: SATELLITE DATA IS BEING USED TO AUGMENT CLOUD COVER ABOVE
       12000 FEET.
       "FAIR" INDICATES FEW OR NO CLOUDS BELOW 12,000 FEET WITH NO
       SIGNIFICANT WEATHER AND/OR OBSTRUCTIONS TO VISIBILITY.

  * THESE STATIONS DO NOT REPORT WEATHER SUCH AS RAIN...SNOW OR FOG.

NEZ001>004-019>022-054>056-022100-
NEBRASKA PANHANDLE

CITY           SKY/WX    TMP DP  RH WIND       PRES   REMARKS
SCOTTSBLUFF    PTSUNNY   43  24  47 S15G22    29.81
ALLIANCE       CLOUDY    38  20  48 S20       29.84F WCI  28
CHADRON        CLOUDY    42  23  46 S22       29.80
KIMBALL        SUNNY     38  24  56 S15       29.78F WCI  30
SIDNEY         CLOUDY    35  23  61 S22G29    29.84  WCI  23
$$

NEZ057>060-069>072-079>082-022100-
SOUTHWEST NEBRASKA

CITY           SKY/WX    TMP DP  RH WIND       PRES   REMARKS
NORTH PLATTE   MOSUNNY   40  18  41 S21G31    29.97  WCI  30
IMPERIAL         N/A     31  19  61 S22G28    29.96  WCI  18
LEXINGTON      CLOUDY    39  16  38 S28G36    30.04F WCI  28
MCCOOK         CLOUDY    37  20  50 S23G29    30.03  WCI  26
$$

NEZ005>010-023>029-035>040-094-022100-
NORTH CENTRAL NEBRASKA

CITY           SKY/WX    TMP DP  RH WIND       PRES   REMARKS
VALENTINE      MOSUNNY   39  12  33 S26G38    29.94F WCI  28
AINSWORTH      PTSUNNY   39  13  34 S30G39    29.97F WCI  27
BROKEN BOW     CLOUDY    39  15  37 S25G45    30.03  WCI  28
ORD            CLOUDY    39  15  37 S25G38    30.08  WCI  28
$$

NEZ041-046>049-061>064-073>077-083>087-022100-
SOUTH CENTRAL NEBRASKA

CITY           SKY/WX    TMP DP  RH WIND       PRES   REMARKS
GRAND ISLAND   CLOUDY    39  15  37 S25G37    30.15  WCI  28
AURORA         CLOUDY    39  16  39 S21G30    30.16F WCI  29
HASTINGS       CLOUDY    40  15  36 S18G30    30.14  WCI  31
HEBRON         MOSUNNY   40  16  37 S15G28    30.22F WCI  32
KEARNEY *      CLOUDY    39  16  38 S31G39    30.11F WCI  27
$$

NEZ011>018-030>034-042>045-022100-
NORTHEAST NEBRASKA

CITY           SKY/WX    TMP DP  RH WIND       PRES   REMARKS
NORFOLK        CLOUDY    40  19  43 S18G29    30.16  WCI  31
BLAIR          CLOUDY    39  20  46 S17G25    30.25F WCI  30
COLUMBUS *     CLOUDY    39  18  41 S21G28    30.21F WCI  29
FREMONT        CLOUDY    41  21  45 SE17G24   30.25F
TEKAMAH        CLOUDY    38  21  50 SE15      30.27  WCI  29
$$

NEZ050>053-065>068-078-088>093-022100-
SOUTHEAST NEBRASKA

CITY           SKY/WX    TMP DP  RH WIND       PRES   REMARKS
LINCOLN        CLOUDY    43  20  39 S23       30.26
OMAHA EPPLEY   CLOUDY    39  20  46 S17       30.28  WCI  30
FALLS CITY     PTSUNNY   42  20  41 SE15G22   30.30
NEBRASKA CITY  CLOUDY    40  13  33 S14G22    30.29F WCI  33
$$

NEZ044-045-051>053-067-022100-
OMAHA AREA

CITY           SKY/WX    TMP DP  RH WIND       PRES   REMARKS
OMAHA EPPLEY   CLOUDY    39  20  46 S17       30.28  WCI  30
BLAIR          CLOUDY    39  20  46 S17G25    30.25F WCI  30
FREMONT        CLOUDY    41  21  45 SE17G24   30.25F
OFFUTT AFB     CLOUDY    41  19  42 SE13      30.27
WAHOO          CLOUDY    41  19  41 S17G23    30.24F
$$



USA.gov is the U.S. government's official web portal to all federal, state and local government web resources and services.